STARLINK-37128, 68385

Orbit data source: Space-Track

STARLINK-37128, 68385 is a payload satellite owned by SpaceX/Seattle (US) in SSO that was launched on Thu, 26 Mar 2026 UTC via an FALCON 9 launch vehicle from the Air Force Western Test Range (AFWTR). Payload-class satellites include a variety of spacecraft equipped with specific instruments for various scientific and technological missions. These include communications satellites like Starlink; space stations such as the ISS; scientific satellites like the Hubble; Earth observation satellites from companies like Planet Labs, Umbra, and HawkEye 360; GPS; miniature CubeSats for education and research; and military/defense satellites.

Loading next visibility...
Identifier
68385, 2026-063F
Orbit
SSO
Country
Flag of USUS
Related business
Manufacturer
SpaceX/Seattle
Mission
Operational spacecraft
Bus & Motor
STARLINK V2MO, Unknown motor
Mass
575 kg wet, ~530 kg dry
Launch date (UTC)
2026-03-26 (2 weeks ago)
Launch vehicle
FALCON 9
Launch site
Air Force Western Test Range (AFWTR)
Object type
Payload
Rocket body
Debris
Shape & HBR
Unknown shape, 17.7 m
Radar Cross Section
RCS unknown

Expand to show TLE details & history
Last TLE update: 7 hours ago

TLE from 7 hours ago
0 STARLINK-37128
1 68385U 26063F   26102.25517848  .00077613  00000-0  40208-3 0  9999
2 68385  97.2837 243.6645 0001152 100.4319 259.7079 15.80830341  2920
Epoch: 2026-04-12T06:07Z
TLE epoch observation values (Epoch: 2026-04-12T06:07:27.420Z)
Latitude
-0.00005°
Longitude
-48.6625°
Altitude
331.405 km
Speed
7.71 km/s
True Right ascension
16h 14m 39s
True Declination
0° 00' 00"
Sunlit
Object was in full shadow at epoch
Visualization orbit readout
Latitude
Unknown
Longitude
Unknown
Altitude
Unknown
Speed
Unknown
Apparent Right ascension
Unknown
Apparent Declination
Unknown
Sunlit
N/A
Visualization observer readout
Local Sidereal Time
19:22:16
Azimuth
Unknown
Elevation
Unknown
Doppler factor
Unknown
Orbital elements
Apogee altitude
325.743 km
Perigee altitude
324.199 km
Semi-major axis
6,703.108 km
Eccentricity
0.00012
Inclination
97.2837°
RAAN
243.6645°
Arg. of periapsis
100.4319°
True anomaly
259.69491°
Mean anomaly
259.7079°
Eccentric anomaly
259.70141°
Mean motion
3.95484 °/min
Orbital period
91.03 mins
BSTAR
0.00040208
Loading maneuver chart data...
Computing Atmospheric mass density...
Loading historical data...
Loading historical data...
Loading historical data...
Loading historical data...
Loading historical data...
Loading historical data...
Loading historical data...

Documentation

Showing up to 5 results
|